Location: �clusier
(49.9361°N, 2.7869°E)
Time: 21:30:25
(UTC+00:00)

ATLAS CENTAUR R/B - Pass Details

Date: 30 October 2021
Orbit: 459 x 682 km, 64.7° (Epoch: 25 November)

Event Time Altitude Azimuth Distance (km) Brightness Sun altitude
Exits shadow 04:06:15 13° 351° (N) 1,771 3.9 -24.4°
Maximum altitude 04:06:17 13° 351° (N) 1,772 3.9 -24.4°
Drops below altitude 10° 04:08:28 10° 20° (NNE) 2,009 4.5 -24.0°
Sets 04:12:03 0° 48° (NE) 2,967 5.9 -23.5°
